Regional Weather Roundup
Issued by NWS

Home | Current Version | Previous Version | Text Only | Print | Product List | Glossary Off
Versions: 1 2 3 4 5 6 7 8 9 10 11 12 13 14 15 16 17 18 19 20 21 22 23 24 25 26 27 28 29 30 31 32 33 34 35 36 37 38 39 40 41 42 43 44 45 46 47 48 49 50

000
ASUS45 KSLC 282010
RWRUT

UTAH REGIONAL WEATHER ROUNDUP
NATIONAL WEATHER SERVICE SALT LAKE CITY UT
100 PM MST SAT FEB 28 2015

UTZ001>011-023>025-282100-

NORTHERN UTAH

CITY           SKY/WX    TMP DP  RH WIND       PRES   REMARKS
BRIGHAM CITY   CLOUDY    46  18  32 SE15G24   29.72S
HILL AFB       CLOUDY    41  15  35 E15G21    29.70S
LOGAN          SUNNY     43  17  35 E13       29.74S
OGDEN          CLOUDY    44  17  33 SE8       29.70S
PROVO AIRPORT  CLOUDY    43  23  45 SE12      29.69F
SALT LAKE CITY CLOUDY    44  20  38 VRB5      29.69F
VERNAL         PTSUNNY   39  20  46 CALM      29.74F
WENDOVER       CLOUDY    41  25  52 N7        29.72S
HEBER CITY     LGT SNOW  32  27  80 NW7       29.71F WCI  26
WEST JORDAN    CLOUDY    43  25  49 S9        29.70S

$$

UTZ012>022-026-027-282100-

SOUTHERN/CENTRAL UTAH

CITY           SKY/WX    TMP DP  RH WIND       PRES   REMARKS
BLANDING       CLOUDY    32  32 100 SE7       29.84F WCI  26
CEDAR CITY     LGT SNOW  33  31  92 S8        29.69R VSB 1   WCI  26
DELTA          CLOUDY    35  33  93 CALM      29.67F
HANKSVILLE     CLOUDY    37  32  81 NE12      29.75F WCI  30
MILFORD        PTSUNNY   36  32  85 S12       29.66F WCI  28
MOAB/CYNLANDS  CLOUDY    34  30  85 E8        29.73S WCI  27
PRICE          LGT SNOW  33  29  85 SW3       29.71F FOG
ST GEORGE      CLOUDY    46  37  71 NW3       29.74F
KANAB          PTSUNNY   46  28  49 SW18G28   29.72F

$$

REGIONAL REPORTS     COLORADO/ARIZONA

CITY           SKY/WX    TMP DP  RH WIND       PRES   REMARKS
CRAIG, CO      PTSUNNY   40  14  34 E12       29.74F WCI  33
GRAND JUNCTION PTSUNNY   38  18  44 SE7       29.75F WCI  33
RIFLE          PTSUNNY   37  16  42 CALM      29.74F
MONTROSE       LGT SNOW  29  24  82 CALM      29.79F
CORTEZ         LGT SNOW  36  32  85 CALM      29.79F FOG
PAGE, AZ       CLOUDY    44  35  70 NE3       29.71F
GRAND CANYON   LGT SNOW  33  32  96 SW18      29.76S VSB 3/4 WCI  22
KINGMAN        CLOUDY    55  36  48 S21       29.76F
FLAGSTAFF      CLOUDY    37  28  70 SW17G31   29.80F WCI  27

$$

REGIONAL REPORTS    NEVADA/IDAHO/WYOMING

CITY           SKY/WX    TMP DP  RH WIND       PRES   REMARKS
LAS VEGAS, NV  MOSUNNY   59  26  28 S17G36    29.66S
ELY            CLOUDY    35  27  72 N7        29.67S WCI  29
ELKO           PTSUNNY   34  30  85 NE6       29.70S WCI  29
POCATELLO, ID  MOSUNNY   43  19  38 NE15G23   29.77F
BURLEY         CLOUDY    39  19  44 E12       29.76F WCI  32
EVANSTON, WY   PTSUNNY   26  17  68 E20       29.73F WCI  12
ROCK SPRINGS   CLOUDY    24  13  62 E16       29.79F WCI  11

$$



USA.gov is the U.S. government's official web portal to all federal, state and local government web resources and services.